Showing default

POLYTECH UNIVERSE-5, 61745

Orbit data source: Space-Track

POLYTECH UNIVERSE-5, 61745 is a payload satellite owned by Polytech (CIS) in SSO that was launched on Mon, 04 Nov 2024 UTC via a SOYUZ-2-1B launch vehicle from the Vostochny Cosmodrome (VOSTO). Payload-class satellites include a variety of spacecraft equipped with specific instruments for various scientific and technological missions. These include communications satellites like Starlink; space stations such as the ISS; scientific satellites like the Hubble; Earth observation satellites from companies like Planet Labs, Umbra, and HawkEye 360; GPS; miniature CubeSats for education and research; and military/defense satellites.

Loading next visibility...
Identifier
61745, 2024-199L
Orbit
SSO
Country
Flag of CISCIS
Related business
Manufacturer
STTs
Mission
Operational Amateur Science
Bus & Motor
CUBESAT 3U, Unknown motor
Mass
5.07 kg wet, 5.07 kg dry
Launch date (UTC)
2024-11-04 (2 years ago)
Launch vehicle
SOYUZ-2-1B
Launch site
Vostochny Cosmodrome (VOSTO)
Object type
Payload
Rocket body
Debris
Shape & HBR
Box, 0.1 m
Radar Cross Section
0.035 m², Medium (>0.1 m² and < 1m²)

Expand to show TLE details & history
Last TLE update: 11 hours ago

TLE from 11 hours ago
0 POLYTECH UNIVERSE-5
1 61745U 24199L   26145.62872884  .00051359  00000-0  65784-3 0  9997
2 61745  97.2998  22.7020 0005218  19.7885 340.3573 15.59019358134162
Epoch: 2026-05-25T15:05Z
TLE epoch observation values (Epoch: 2026-05-25T15:05:22.171Z)
Latitude
-0.00004°
Longitude
-86.85416°
Altitude
390.313 km
Speed
7.678 km/s
True Right ascension
01h 30m 48s
True Declination
0° 00' 00"
Sunlit
Object was in daylight at epoch
Visualization orbit readout
Latitude
Unknown
Longitude
Unknown
Altitude
Unknown
Speed
Unknown
Apparent Right ascension
Unknown
Apparent Declination
Unknown
Sunlit
N/A
Visualization observer readout
Local Sidereal Time
10:50:24
Azimuth
Unknown
Elevation
Unknown
Doppler factor
Unknown
Orbital elements
Apogee altitude
390.934 km
Perigee altitude
383.873 km
Semi-major axis
6,765.54 km
Eccentricity
0.00052
Inclination
97.2998°
RAAN
22.702°
Arg. of periapsis
19.7885°
True anomaly
340.33719°
Mean anomaly
340.3573°
Eccentric anomaly
340.34725°
Mean motion
3.90022 °/min
Orbital period
92.3 mins
BSTAR
0.00065784
Loading maneuver chart data...
Computing Atmospheric mass density...
Loading historical data...
Loading historical data...
Loading historical data...
Loading historical data...
Loading historical data...
Loading historical data...
Loading historical data...

Documentation

Showing up to 5 results
|